Time,TemperatureF,DewpointF,PressureIn,WindDirection,WindDirectionDegrees,WindSpeedMPH,WindSpeedGustMPH,Humidity,HourlyPrecipIn,Conditions,Clouds,dailyrainin,SolarRadiationWatts/m^2,SoftwareType,DateUTC
2013-03-10 00:01:00,33.0,32.0,-100.00,SW,216,3.0,8.0,95,0.02,,,0.26,1.000000,,2013-03-10 06:01:00,
2013-03-10 00:11:00,33.0,32.0,-100.00,SW,216,3.0,8.0,95,0.02,,,0.26,1.000000,,2013-03-10 06:11:00,
2013-03-10 00:22:00,33.0,32.0,-100.00,SW,216,3.0,8.0,95,0.02,,,0.26,1.000000,,2013-03-10 06:22:00,
2013-03-10 00:32:00,33.0,32.0,-100.00,SW,216,3.0,8.0,95,0.02,,,0.26,1.000000,,2013-03-10 06:32:00,
2013-03-10 00:52:00,33.0,32.0,-100.00,SW,218,3.0,8.0,96,0.01,,,0.27,1.000000,,2013-03-10 06:52:00,
2013-03-10 01:02:00,33.0,32.0,-100.00,SW,218,3.0,8.0,96,0.01,,,0.27,1.000000,,2013-03-10 07:02:00,
2013-03-10 01:11:00,33.0,32.0,-100.00,SW,218,3.0,8.0,96,0.01,,,0.27,1.000000,,2013-03-10 07:11:00,
2013-03-10 01:21:00,33.0,32.0,-100.00,SW,218,3.0,8.0,96,0.01,,,0.27,1.000000,,2013-03-10 07:21:00,
2013-03-10 01:31:00,33.0,32.0,-100.00,SW,218,3.0,8.0,96,0.01,,,0.27,1.000000,,2013-03-10 07:31:00,
2013-03-10 01:52:00,33.0,32.0,-100.00,SSW,211,3.0,8.0,96,0.00,,,0.27,1.000000,,2013-03-10 07:52:00,
2013-03-10 03:01:00,33.0,32.0,-100.00,SSW,211,3.0,8.0,96,0.00,,,0.27,1.000000,,2013-03-10 08:01:00,
2013-03-10 03:11:00,33.0,32.0,-100.00,SSW,211,3.0,8.0,96,0.00,,,0.27,1.000000,,2013-03-10 08:11:00,
2013-03-10 03:21:00,33.0,32.0,-100.00,SSW,211,3.0,8.0,96,0.00,,,0.27,1.000000,,2013-03-10 08:21:00,
2013-03-10 03:31:00,33.0,32.0,-100.00,SSW,211,3.0,8.0,96,0.00,,,0.27,1.000000,,2013-03-10 08:31:00,
2013-03-10 04:01:00,33.0,32.0,-100.00,SW,228,3.0,8.0,97,0.00,,,0.27,1.000000,,2013-03-10 09:01:00,
2013-03-10 04:11:00,33.0,32.0,-100.00,SW,228,3.0,8.0,97,0.00,,,0.27,1.000000,,2013-03-10 09:11:00,
2013-03-10 04:21:00,33.0,32.0,-100.00,SW,228,3.0,8.0,97,0.00,,,0.27,1.000000,,2013-03-10 09:21:00,
2013-03-10 04:31:00,33.0,32.0,-100.00,SW,228,3.0,8.0,97,0.00,,,0.27,1.000000,,2013-03-10 09:31:00,
2013-03-10 05:01:00,33.0,32.0,-100.00,SW,216,1.0,2.0,97,0.01,,,0.28,1.000000,,2013-03-10 10:01:00,
2013-03-10 05:11:00,33.0,32.0,-100.00,SW,216,1.0,2.0,97,0.01,,,0.28,1.000000,,2013-03-10 10:11:00,
2013-03-10 05:21:00,33.0,32.0,-100.00,SW,216,1.0,2.0,97,0.01,,,0.28,1.000000,,2013-03-10 10:21:00,
2013-03-10 05:32:00,33.0,32.0,-100.00,SW,216,1.0,2.0,97,0.01,,,0.28,1.000000,,2013-03-10 10:32:00,
2013-03-10 06:01:00,33.0,32.0,-100.00,WSW,240,0.0,3.0,97,0.00,,,0.28,1.000000,,2013-03-10 11:01:00,
2013-03-10 06:12:00,33.0,32.0,-100.00,WSW,240,0.0,3.0,97,0.00,,,0.28,1.000000,,2013-03-10 11:12:00,
2013-03-10 06:21:00,33.0,32.0,-100.00,WSW,240,0.0,3.0,97,0.00,,,0.28,1.000000,,2013-03-10 11:21:00,
2013-03-10 06:32:00,33.0,32.0,-100.00,WSW,240,0.0,3.0,97,0.00,,,0.28,1.000000,,2013-03-10 11:32:00,
2013-03-10 09:01:00,32.0,30.0,-100.00,NNE,16,7.0,12.0,93,-99.99,,,0.29,13.000000,,2013-03-10 14:01:00,
2013-03-10 09:11:00,32.0,30.0,-100.00,NNE,16,7.0,12.0,93,-99.99,,,0.29,13.000000,,2013-03-10 14:11:00,
2013-03-10 09:21:00,32.0,30.0,-100.00,NNE,16,7.0,12.0,93,-99.99,,,0.29,13.000000,,2013-03-10 14:21:00,
2013-03-10 09:32:00,32.0,30.0,-100.00,NNE,16,7.0,12.0,93,-99.99,,,0.29,13.000000,,2013-03-10 14:32:00,
2013-03-10 10:01:00,32.0,30.0,-100.00,NNE,22,6.0,11.0,91,0.00,,,0.29,29.000000,,2013-03-10 15:01:00,
2013-03-10 10:11:00,32.0,30.0,-100.00,NNE,22,6.0,11.0,91,0.00,,,0.29,29.000000,,2013-03-10 15:11:00,
2013-03-10 10:21:00,32.0,30.0,-100.00,NNE,22,6.0,11.0,91,0.00,,,0.29,29.000000,,2013-03-10 15:21:00,
2013-03-10 10:32:00,32.0,30.0,-100.00,NNE,22,6.0,11.0,91,0.00,,,0.29,29.000000,,2013-03-10 15:32:00,
2013-03-10 11:01:00,32.0,30.0,-100.00,NNE,18,7.0,16.0,91,0.00,,,0.29,41.000000,,2013-03-10 16:01:00,
2013-03-10 11:12:00,32.0,30.0,-100.00,NNE,18,7.0,16.0,91,0.00,,,0.29,41.000000,,2013-03-10 16:12:00,
2013-03-10 11:21:00,32.0,30.0,-100.00,NNE,18,7.0,16.0,91,0.00,,,0.29,41.000000,,2013-03-10 16:21:00,
2013-03-10 11:32:00,32.0,30.0,-100.00,NNE,18,7.0,16.0,91,0.00,,,0.29,41.000000,,2013-03-10 16:32:00,
2013-03-10 13:01:00,32.0,29.0,-100.00,NNE,28,7.0,12.0,87,-99.99,,,-99.99,76.000000,,2013-03-10 18:01:00,
2013-03-10 13:11:00,32.0,29.0,-100.00,NNE,28,7.0,12.0,87,-99.99,,,-99.99,76.000000,,2013-03-10 18:11:00,
2013-03-10 13:21:00,32.0,29.0,-100.00,NNE,28,7.0,12.0,87,-99.99,,,-99.99,76.000000,,2013-03-10 18:21:00,
2013-03-10 13:32:00,32.0,29.0,-100.00,NNE,28,7.0,12.0,87,-99.99,,,-99.99,76.000000,,2013-03-10 18:32:00,
2013-03-10 14:01:00,32.0,28.0,-100.00,NNE,25,7.0,12.0,86,0.00,,,0.22,74.000000,,2013-03-10 19:01:00,
2013-03-10 14:11:00,32.0,28.0,-100.00,NNE,25,7.0,12.0,86,0.00,,,0.22,74.000000,,2013-03-10 19:11:00,
2013-03-10 14:21:00,32.0,28.0,-100.00,NNE,25,7.0,12.0,86,0.00,,,0.22,74.000000,,2013-03-10 19:21:00,
2013-03-10 14:32:00,32.0,28.0,-100.00,NNE,25,7.0,12.0,86,0.00,,,0.22,74.000000,,2013-03-10 19:32:00,
2013-03-10 15:02:00,31.0,27.0,-100.00,NNE,25,7.0,13.0,84,0.00,,,0.21,84.000000,,2013-03-10 20:02:00,
2013-03-10 15:12:00,31.0,27.0,-100.00,NNE,25,7.0,13.0,84,0.00,,,0.21,84.000000,,2013-03-10 20:12:00,
2013-03-10 15:22:00,31.0,27.0,-100.00,NNE,25,7.0,13.0,84,0.00,,,0.21,84.000000,,2013-03-10 20:22:00,
2013-03-10 15:32:00,31.0,27.0,-100.00,NNE,25,7.0,13.0,84,0.00,,,0.21,84.000000,,2013-03-10 20:32:00,
2013-03-10 15:53:00,31.0,26.0,-100.00,NE,38,9.0,16.0,82,0.00,,,0.21,99.000000,,2013-03-10 20:53:00,
2013-03-10 16:02:00,31.0,26.0,-100.00,NE,38,9.0,16.0,82,0.00,,,0.21,99.000000,,2013-03-10 21:02:00,
2013-03-10 16:12:00,31.0,26.0,-100.00,NE,38,9.0,16.0,82,0.00,,,0.21,99.000000,,2013-03-10 21:12:00,
2013-03-10 16:23:00,31.0,26.0,-100.00,NE,38,9.0,16.0,82,0.00,,,0.21,99.000000,,2013-03-10 21:23:00,
2013-03-10 16:32:00,31.0,26.0,-100.00,NE,38,9.0,16.0,82,0.00,,,0.21,99.000000,,2013-03-10 21:32:00,
2013-03-10 16:53:00,31.0,26.0,-100.00,NE,40,10.0,17.0,82,0.00,,,0.21,55.000000,,2013-03-10 21:53:00,
2013-03-10 17:02:00,31.0,26.0,-100.00,NE,40,10.0,17.0,82,0.00,,,0.21,55.000000,,2013-03-10 22:02:00,
2013-03-10 17:12:00,31.0,26.0,-100.00,NE,40,10.0,17.0,82,0.00,,,0.21,55.000000,,2013-03-10 22:12:00,
2013-03-10 17:22:00,31.0,26.0,-100.00,NE,40,10.0,17.0,82,0.00,,,0.21,55.000000,,2013-03-10 22:22:00,
2013-03-10 17:32:00,31.0,26.0,-100.00,NE,40,10.0,17.0,82,0.00,,,0.21,55.000000,,2013-03-10 22:32:00,
2013-03-10 17:53:00,30.0,25.0,-100.00,NNE,31,9.0,18.0,81,0.00,,,0.21,37.000000,,2013-03-10 22:53:00,
2013-03-10 18:03:00,30.0,25.0,-100.00,NNE,31,9.0,18.0,81,0.00,,,0.21,37.000000,,2013-03-10 23:03:00,
2013-03-10 18:12:00,30.0,25.0,-100.00,NNE,31,9.0,18.0,81,0.00,,,0.21,37.000000,,2013-03-10 23:12:00,
2013-03-10 18:23:00,30.0,25.0,-100.00,NNE,31,9.0,18.0,81,0.00,,,0.21,37.000000,,2013-03-10 23:23:00,
2013-03-10 18:32:00,30.0,25.0,-100.00,NNE,31,9.0,18.0,81,0.00,,,0.21,37.000000,,2013-03-10 23:32:00,
2013-03-10 19:02:00,29.0,24.0,-100.00,NE,39,10.0,17.0,82,0.00,,,0.21,12.000000,,2013-03-11 00:02:00,
2013-03-10 19:12:00,29.0,24.0,-100.00,NE,39,10.0,17.0,82,0.00,,,0.21,12.000000,,2013-03-11 00:12:00,
2013-03-10 19:23:00,29.0,24.0,-100.00,NE,39,10.0,17.0,82,0.00,,,0.21,12.000000,,2013-03-11 00:23:00,
2013-03-10 19:33:00,29.0,24.0,-100.00,NE,39,10.0,17.0,82,0.00,,,0.21,12.000000,,2013-03-11 00:33:00,
2013-03-10 20:03:00,29.0,23.0,-100.00,ENE,62,9.0,17.0,79,0.00,,,0.16,1.000000,,2013-03-11 01:03:00,
2013-03-10 20:13:00,29.0,23.0,-100.00,ENE,62,9.0,17.0,79,0.00,,,0.16,1.000000,,2013-03-11 01:13:00,
2013-03-10 20:23:00,29.0,23.0,-100.00,ENE,62,9.0,17.0,79,0.00,,,0.16,1.000000,,2013-03-11 01:23:00,
2013-03-10 20:32:00,29.0,23.0,-100.00,ENE,62,9.0,17.0,79,0.00,,,0.16,1.000000,,2013-03-11 01:32:00,
2013-03-10 21:02:00,28.0,23.0,-100.00,ENE,58,10.0,21.0,81,0.00,,,0.10,1.000000,,2013-03-11 02:02:00,
2013-03-10 21:12:00,28.0,23.0,-100.00,ENE,58,10.0,21.0,81,0.00,,,0.10,1.000000,,2013-03-11 02:12:00,
2013-03-10 21:22:00,28.0,23.0,-100.00,ENE,58,10.0,21.0,81,0.00,,,0.10,1.000000,,2013-03-11 02:22:00,
2013-03-10 21:32:00,28.0,23.0,-100.00,ENE,58,10.0,21.0,81,0.00,,,0.10,1.000000,,2013-03-11 02:32:00,
2013-03-10 22:02:00,27.0,23.0,-100.00,ENE,61,9.0,17.0,83,0.00,,,0.08,1.000000,,2013-03-11 03:02:00,
2013-03-10 22:12:00,27.0,23.0,-100.00,ENE,61,9.0,17.0,83,0.00,,,0.08,1.000000,,2013-03-11 03:12:00,
2013-03-10 22:22:00,27.0,23.0,-100.00,ENE,61,9.0,17.0,83,0.00,,,0.08,1.000000,,2013-03-11 03:22:00,
2013-03-10 22:32:00,27.0,23.0,-100.00,ENE,61,9.0,17.0,83,0.00,,,0.08,1.000000,,2013-03-11 03:32:00,
2013-03-10 23:02:00,27.0,24.0,-100.00,NE,45,9.0,17.0,87,0.00,,,0.07,1.000000,,2013-03-11 04:02:00,
2013-03-10 23:12:00,27.0,24.0,-100.00,NE,45,9.0,17.0,87,0.00,,,0.07,1.000000,,2013-03-11 04:12:00,
2013-03-10 23:22:00,27.0,24.0,-100.00,NE,45,9.0,17.0,87,0.00,,,0.07,1.000000,,2013-03-11 04:22:00,
2013-03-10 23:32:00,27.0,24.0,-100.00,NE,45,9.0,17.0,87,0.00,,,0.07,1.000000,,2013-03-11 04:32:00,